Other Public Products
Issued by NWS Charleston, SC

Current Version | Previous Version | Graphics & Text | Print | Product List | Glossary On
Versions: 1 2 3 4 5 6 7 8 9 10 11 12 13 14 15 16 17 18 19 20 21 22 23 24 25 26 27 28 29 30 31 32 33 34 35 36 37 38 39 40 41 42 43 44 45 46 47 48 49 50
000 FPUS82 KCHS 240911 OPUCHS TEST...KCHS/KSAV Gateway Observations...TEST National Weather Service Charleston SC 400 AM EST FRI FEB 24 2017 NOTE: "fair" indicates few or no clouds below 12,000 feet with no significant weather and/or obstructions to visibility. SCZ050-WAZ558-NCZ071-TXZ119-213-PAZ071-DCZ001-FLZ074-172-MI076- NYZ176-178-MAZ016-IL014-TNZ027-NJZ106-GAZ044-MD014-241000- ...Gateway Observations for Charleston International... CITY SKY/WX TMP DP RH WIND PRES REMARKS Chas Airport PTCLDY 57 55 93 N6 29.86S Seattle CLOUDY 35 32 88 S7 30.16F WCI 29 Charlotte CLEAR 56 50 80 SE3 29.91S Dallas DFW PTCLDY 63 57 81 SW7 29.56F Dallas Love PTCLDY 64 59 83 S7 29.58F Philladelphia PTCLDY 53 50 89 W5 29.92S Wash National PTCLDY 57 53 86 S7 29.91S Baltimore PTCLDY 49 47 93 CALM 29.90S Miami PTCLDY 64 62 93 W3 29.71S Detroit LGT RAIN 41 39 93 CALM 29.74F Newark PTCLDY 54 49 83 CALM 29.91S Laguardia PTCLDY 53 47 79 S7 29.91S J F K PTCLDY 46 46 100 SE6 29.93S Boston Logan PTCLDY 47 47 100 CALM 29.91R Ft. Lauderdale CLEAR 65 63 93 W5 29.69F Chicago O`Hare CLOUDY 40 38 93 NE13 29.56F WCI 32 Chicago Midway CLOUDY 41 38 89 N8 29.55F FOG Houston Bush PTCLDY 66 63 90 S8 29.67S Houston Hobby MOCLDY 67 64 90 S12 29.67S Nashville PTCLDY 65 55 70 S17 29.75S Atlanta CLEAR 58 52 80 SE5 29.86F $$ GAZ044-118-TXZ119-213-NCZ071-DCZ001-MDZ014-506-PAZ021-071-NJZ106- NYZ176-178-MAZ106-OHZ011-021-055-MIZ076-KYZ091-ILZ014-INZ047- MNZ060-ONZ431-241000- ...Gateway Observations for Savannah International... CITY SKY/WX TMP DP RH WIND PRES REMARKS Savannah Arpt PTCLDY 61 58 90 NE8 29.84F Atlanta CLEAR 58 52 80 SE5 29.86F Charlotte CLEAR 56 50 80 SE3 29.91S Dallas DFW PTCLDY 63 57 81 SW7 29.56F Houston Bush PTCLDY 66 63 90 S8 29.67S Wash National PTCLDY 57 53 86 S7 29.91S Wash Dulles PTCLDY 58 50 75 S6 29.89S Baltimore PTCLDY 49 47 93 CALM 29.90S Philadelphia PTCLDY 53 50 89 W5 29.92S Newark PTCLDY 54 49 83 CALM 29.91S Laguardia PTCLDY 53 47 79 S7 29.91S J F K PTCLDY 46 46 100 SE6 29.93S Boston PTCLDY 47 47 100 CALM 29.91R Pittsburg MOCLDY 55 52 89 S5 29.79F Akron CLOUDY 58 53 84 S12 29.76F Cleveland LGT RAIN 46 42 86 NW3 29.76S FOG Cincinnati PTCLDY 56 52 86 S8 29.72S Columbus CLOUDY 58 54 89 S9 29.74S Detroit LGT RAIN 41 39 93 CALM 29.74F Chicago O`Hare CLOUDY 40 38 93 NE13 29.56F WCI 32 Minneapolis CLOUDY 28 17 63 N18G25 29.85R WCI 15 Indianapolis PTCLDY 58 53 84 SE10 29.61F Toronto Canada MOCLDY 39 34 81 NE8 29.86F WCI 34 $$

USA.gov is the U.S. government's official web portal to all federal, state and local government web resources and services.